When you browse on this site, cookies collect data to enhance your experience and personalize the content and advertising you see.
Visit our Privacy Policy to learn more. By continuing to use the site, you agree to this use of cookies and data.
EN

Hourly Weather Suphan Buri

Today, 10 August, Monday

Time Temperature Precipitation Wind Pressure Humidity
00:00 +29°C° 0.1 mm 3 mps 754 mmHg 84%
01:00 +28°C° 0 mm 2 mps 754 mmHg 85%
02:00 +28°C° 0.1 mm 2 mps 754 mmHg 85%
03:00 +28°C° 0.1 mm 2 mps 754 mmHg 85%
04:00 +28°C° 0.1 mm 2 mps 754 mmHg 85%
05:00 +28°C° 0 mm 2 mps 754 mmHg 84%
06:00 +28°C° 0 mm 2 mps 754 mmHg 84%
07:00 +29°C° 0 mm 2 mps 754 mmHg 83%
08:00 +30°C° 0 mm 2 mps 755 mmHg 77%
09:00 +31°C° 0 mm 3 mps 755 mmHg 71%
10:00 +34°C° 0 mm 4 mps 756 mmHg 65%
11:00 +34°C° 0 mm 4 mps 755 mmHg 64%
12:00 +34°C° 0 mm 4 mps 755 mmHg 63%
13:00 +34°C° 0 mm 5 mps 754 mmHg 62%
14:00 +35°C° 0.1 mm 5 mps 754 mmHg 60%
15:00 +35°C° 0.1 mm 5 mps 753 mmHg 58%
16:00 +36°C° 0.1 mm 6 mps 753 mmHg 57%
17:00 +34°C° 0.5 mm 5 mps 753 mmHg 61%
18:00 +33°C° 0.5 mm 4 mps 753 mmHg 66%
19:00 +30°C° 0.5 mm 3 mps 753 mmHg 71%
20:00 +30°C° 0 mm 3 mps 754 mmHg 71%
21:00 +30°C° 0 mm 3 mps 755 mmHg 71%
22:00 +29°C° 0 mm 3 mps 755 mmHg 72%
23:00 +29°C° 0 mm 3 mps 755 mmHg 72%

Tomorrow, 11 August, Tuesday

Time Temperature Precipitation Wind Pressure Humidity
00:00 +29°C° 0 mm 2 mps 755 mmHg 73%
01:00 +29°C° 0 mm 2 mps 755 mmHg 74%
02:00 +29°C° 0 mm 2 mps 754 mmHg 75%
03:00 +28°C° 0 mm 2 mps 754 mmHg 75%
04:00 +28°C° 0 mm 2 mps 754 mmHg 76%
05:00 +28°C° 0 mm 2 mps 754 mmHg 77%
06:00 +28°C° 0 mm 2 mps 754 mmHg 78%
07:00 +28°C° 0 mm 2 mps 755 mmHg 79%
08:00 +28°C° 0 mm 2 mps 755 mmHg 79%
09:00 +28°C° 0 mm 3 mps 755 mmHg 80%
10:00 +29°C° 0 mm 3 mps 755 mmHg 80%
11:00 +30°C° 0 mm 3 mps 755 mmHg 76%
12:00 +30°C° 0 mm 3 mps 755 mmHg 73%
13:00 +32°C° 0 mm 4 mps 754 mmHg 69%
14:00 +32°C° 0 mm 4 mps 754 mmHg 70%
15:00 +32°C° 0 mm 4 mps 753 mmHg 70%
16:00 +32°C° 0 mm 4 mps 752 mmHg 71%
17:00 +30°C° 0 mm 3 mps 753 mmHg 72%
18:00 +30°C° 0 mm 3 mps 753 mmHg 74%
19:00 +29°C° 0 mm 3 mps 753 mmHg 76%
20:00 +29°C° 0 mm 3 mps 754 mmHg 76%
21:00 +29°C° 0 mm 3 mps 755 mmHg 75%
22:00 +29°C° 0 mm 3 mps 756 mmHg 75%
23:00 +29°C° 0 mm 3 mps 755 mmHg 76%

Day after tomorrow, 12 August, Wednesday

Time Temperature Precipitation Wind Pressure Humidity
00:00 +29°C° 0 mm 2 mps 755 mmHg 77%
01:00 +28°C° 0 mm 2 mps 755 mmHg 78%
02:00 +28°C° 0 mm 2 mps 755 mmHg 78%
03:00 +28°C° 0 mm 2 mps 754 mmHg 79%
04:00 +28°C° 0 mm 2 mps 754 mmHg 80%
05:00 +28°C° 0 mm 2 mps 754 mmHg 80%
06:00 +28°C° 0 mm 2 mps 754 mmHg 81%
07:00 +28°C° 0 mm 2 mps 755 mmHg 82%
08:00 +29°C° 0 mm 2 mps 755 mmHg 79%
09:00 +29°C° 0 mm 2 mps 756 mmHg 77%
10:00 +30°C° 0 mm 3 mps 756 mmHg 75%
11:00 +31°C° 0 mm 3 mps 756 mmHg 72%
12:00 +31°C° 0 mm 3 mps 755 mmHg 70%
13:00 +33°C° 0 mm 3 mps 755 mmHg 68%
14:00 +33°C° 0 mm 3 mps 754 mmHg 67%
15:00 +33°C° 0 mm 3 mps 753 mmHg 66%
16:00 +33°C° 0 mm 4 mps 752 mmHg 65%
17:00 +33°C° 0.1 mm 4 mps 753 mmHg 67%
18:00 +32°C° 0.1 mm 4 mps 753 mmHg 68%
19:00 +30°C° 0.1 mm 3 mps 753 mmHg 70%
20:00 +30°C° 0 mm 4 mps 754 mmHg 71%
21:00 +30°C° 0 mm 4 mps 755 mmHg 71%
22:00 +29°C° 0 mm 4 mps 756 mmHg 72%
23:00 +29°C° 0 mm 3 mps 755 mmHg 73%

13 August, Thursday

Time Temperature Precipitation Wind Pressure Humidity
00:00 +29°C° 0 mm 3 mps 755 mmHg 74%
01:00 +28°C° 0 mm 3 mps 755 mmHg 76%
02:00 +28°C° 0 mm 3 mps 754 mmHg 77%
03:00 +28°C° 0 mm 3 mps 754 mmHg 78%
04:00 +28°C° 0 mm 3 mps 754 mmHg 78%
05:00 +28°C° 0 mm 2 mps 754 mmHg 79%
06:00 +28°C° 0 mm 2 mps 754 mmHg 80%
07:00 +28°C° 0 mm 2 mps 754 mmHg 81%
08:00 +28°C° 0 mm 3 mps 755 mmHg 79%
09:00 +29°C° 0 mm 3 mps 755 mmHg 77%
10:00 +30°C° 0 mm 3 mps 755 mmHg 75%
11:00 +30°C° 0 mm 3 mps 755 mmHg 73%
12:00 +31°C° 0 mm 3 mps 754 mmHg 71%
13:00 +31°C° 0 mm 3 mps 754 mmHg 69%
14:00 +33°C° 0.5 mm 3 mps 753 mmHg 66%
15:00 +34°C° 0.5 mm 4 mps 752 mmHg 62%
16:00 +35°C° 0.5 mm 4 mps 752 mmHg 58%
17:00 +34°C° 0.8 mm 4 mps 752 mmHg 63%
18:00 +31°C° 0.8 mm 3 mps 752 mmHg 68%
19:00 +30°C° 0.8 mm 3 mps 753 mmHg 73%
20:00 +29°C° 0.2 mm 3 mps 754 mmHg 77%
21:00 +29°C° 0.2 mm 3 mps 754 mmHg 80%
22:00 +28°C° 0.2 mm 3 mps 755 mmHg 83%
23:00 +28°C° 0.3 mm 3 mps 755 mmHg 85%

14 August, Friday

Time Temperature Precipitation Wind Pressure Humidity
00:00 +28°C° 0.3 mm 3 mps 755 mmHg 87%
01:00 +27°C° 0.3 mm 3 mps 755 mmHg 89%
02:00 +27°C° 0.1 mm 3 mps 754 mmHg 89%
03:00 +27°C° 0.1 mm 2 mps 754 mmHg 89%
04:00 +27°C° 0.1 mm 2 mps 753 mmHg 89%
05:00 +27°C° 0.1 mm 2 mps 754 mmHg 89%
06:00 +27°C° 0.1 mm 2 mps 754 mmHg 89%
07:00 +27°C° 0.1 mm 2 mps 754 mmHg 89%
08:00 +28°C° 0.1 mm 2 mps 755 mmHg 84%
09:00 +29°C° 0.1 mm 2 mps 755 mmHg 80%
10:00 +30°C° 0.1 mm 3 mps 755 mmHg 75%
11:00 +31°C° 0 mm 3 mps 755 mmHg 73%
12:00 +31°C° 0 mm 3 mps 754 mmHg 71%
13:00 +31°C° 0 mm 2 mps 754 mmHg 69%
14:00 +31°C° 0.2 mm 2 mps 753 mmHg 69%
15:00 +32°C° 0.2 mm 2 mps 753 mmHg 68%
16:00 +32°C° 0.2 mm 2 mps 753 mmHg 67%
17:00 +31°C° 1.4 mm 3 mps 753 mmHg 73%
18:00 +30°C° 1.4 mm 3 mps 754 mmHg 79%
19:00 +28°C° 1.4 mm 4 mps 754 mmHg 84%
20:00 +28°C° 1.2 mm 4 mps 755 mmHg 86%
21:00 +28°C° 1.2 mm 3 mps 755 mmHg 88%
22:00 +27°C° 1.2 mm 3 mps 756 mmHg 90%
23:00 +27°C° 0.2 mm 2 mps 756 mmHg 91%

15 August, Saturday

Time Temperature Precipitation Wind Pressure Humidity
00:00 +27°C° 0.2 mm 2 mps 755 mmHg 92%
01:00 +27°C° 0.2 mm 1 mps 755 mmHg 93%
02:00 +27°C° 0.1 mm 1 mps 755 mmHg 93%
03:00 +27°C° 0.1 mm 1 mps 754 mmHg 93%
04:00 +27°C° 0.1 mm 1 mps 754 mmHg 94%
05:00 +27°C° 0.6 mm 1 mps 754 mmHg 93%
06:00 +27°C° 0.6 mm 1 mps 755 mmHg 92%
07:00 +27°C° 0.6 mm 1 mps 755 mmHg 91%
08:00 +27°C° 0.3 mm 1 mps 755 mmHg 89%
09:00 +28°C° 0.3 mm 1 mps 756 mmHg 87%
10:00 +28°C° 0.3 mm 2 mps 756 mmHg 85%
11:00 +29°C° 0.1 mm 1 mps 755 mmHg 83%
12:00 +29°C° 0.1 mm 1 mps 755 mmHg 80%
13:00 +30°C° 0.1 mm 1 mps 755 mmHg 77%
14:00 +29°C° 0.2 mm 1 mps 754 mmHg 78%
15:00 +29°C° 0.2 mm 1 mps 754 mmHg 80%
16:00 +29°C° 0.2 mm 1 mps 754 mmHg 82%
17:00 +28°C° 0.2 mm 1 mps 754 mmHg 83%
18:00 +28°C° 0.2 mm 2 mps 754 mmHg 84%
19:00 +28°C° 0.2 mm 2 mps 755 mmHg 85%
20:00 +27°C° 0.5 mm 2 mps 755 mmHg 86%
21:00 +27°C° 0.5 mm 1 mps 756 mmHg 88%
22:00 +27°C° 0.5 mm 1 mps 757 mmHg 89%
23:00 +27°C° 1.2 mm 1 mps 756 mmHg 89%
Show more